Location: Unspecified
(0.0000°N, 0.0000°E)
Time: 06:34:53
(UTC+00:00)

Courier 1B - Pass Details

Date: 28 November 2019
Orbit: 963 x 1209 km, 28.3° (Epoch: 11 December)

Event Time Altitude Azimuth Distance (km) Brightness Sun altitude
Rises 19:09:30 0° 215° (SW) 3,897 11.6 -18.9°
Reaches altitude 10° 19:13:13 10° 197° (SSW) 2,988 10.6 -19.8°
Maximum altitude 19:18:07 19° 155° (SSE) 2,460 9.6 -20.9°
Enters shadow 19:21:43 14° 123° (ESE) 2,814 9.6 -21.7°
